User: anonymous
Location: Ostrava
(49.8330°N, 18.2830°E)
Time: 09:06:26
(UTC+02:00)
Language:

Cosmos 1400 Rocket - Orbit

View from above orbital plane
View from above orbital plane
View from above satellite
View from above satellite

Ground track
Ground track

The orbit data is extracted from the following two-line orbital elements,

1 13403U 82079B   14237.77768513  .00000875  00000-0  61271-4 0  6435
2 13403 081.1732 003.2509 0036826 057.3918 303.0849 15.03685122742274
Epoch (UTC): 25 August 2014 18:39:51
Eccentricity: 0.0036826
inclination: 81.1732°
perigee height: 530 km
apogee height: 581 km
right ascension of ascending node: 3.2509°
argument of perigee: 57.3918°
revolutions per day: 15.03685122
mean anomaly at epoch: 303.0849°
orbit number at epoch: 74227

The dashed part of the orbit path shows where the satellite is in the earth's shadow,  

DLR